This is the latest recevied weather packets stored in our database for station/object KG7FOQ-13. If no packets are shown the sender has not sent any weather packets the latest 10 day(s).
| Time | Temp. | Humidity | Pressure | Rain* | Wind** | Luminosity | Snow |
|---|---|---|---|---|---|---|---|
| 1788468304 | 21.67° C | 33% | 1011.3 hPa | 0 mm | - | - | - |
| 1788468004 | 21.67° C | 32% | 1011.3 hPa | 0 mm | - | - | - |
| 1788467703 | 21.67° C | 32% | 1011.4 hPa | 0 mm | - | - | - |
| 1788467403 | 21.67° C | 32% | 1011.5 hPa | 0 mm | - | - | - |
| 1788467102 | 22.22° C | 33% | 1011.4 hPa | 0 mm | - | - | - |
| 1788466802 | 22.22° C | 32% | 1011.7 hPa | 0 mm | - | - | - |
| 1788466501 | 21.67° C | 32% | 1011.9 hPa | 0 mm | - | - | - |
| 1788466201 | 21.67° C | 33% | 1011.8 hPa | 0 mm | - | - | - |
| 1788465900 | 21.67° C | 33% | 1011.9 hPa | 0 mm | - | - | - |
| 1788465618 | 21.67° C | 33% | 1011.9 hPa | 0 mm | - | - | - |
| 1788465297 | 21.11° C | 34% | 1012 hPa | 0 mm | - | - | - |
| 1788464996 | 20.56° C | 33% | 1012.1 hPa | 0 mm | - | - | - |
| 1788464696 | 20° C | 34% | 1012.1 hPa | 0 mm | - | - | - |
| 1788464446 | 20° C | 35% | 1012.2 hPa | 0 mm | - | - | - |
| 1788464395 | 20° C | 35% | 1012.2 hPa | 0 mm | - | - | - |
| 1788464095 | 20° C | 36% | 1012.5 hPa | 0 mm | - | - | - |
| 1788463794 | 20° C | 35% | 1012.5 hPa | 0 mm | - | - | - |
| 1788463494 | 20° C | 36% | 1012.5 hPa | 0 mm | - | - | - |
| 1788463193 | 20° C | 35% | 1012.5 hPa | 0 mm | - | - | - |
| 1788462893 | 20° C | 35% | 1012.7 hPa | 0 mm | - | - | - |
| 1788462592 | 21.11° C | 35% | 1012.8 hPa | 0 mm | - | - | - |
| 1788462291 | 20.56° C | 34% | 1012.8 hPa | 0 mm | - | - | - |
| 1788461990 | 20.56° C | 34% | 1012.9 hPa | 0 mm | - | - | - |
| 1788461688 | 20° C | 35% | 1012.9 hPa | 0 mm | - | - | - |
| 1788461387 | 20° C | 34% | 1013.2 hPa | 0 mm | - | - | - |
* Rain latest hour (hover to see other rain measurements)
** Current wind speed in m/s (hover to see current wind gust speed)